Regional Weather Roundup
Issued by NWS

Home | Current Version | Previous Version | Graphics & Text | Print | Product List | Glossary On
Versions: 1 2 3 4 5 6 7 8 9 10 11 12 13 14 15 16 17 18 19 20 21 22 23 24 25 26 27
000
ASUS45 KTFX 262110
RWRMT
MONTANA REGIONAL WEATHER ROUNDUP
NATIONAL WEATHER SERVICE GREAT FALLS MT
300 PM MDT MON SEP 26 2016

NOTE: "FAIR" INDICATES FEW OR NO CLOUDS BELOW 12000 FEET WITH NO
SIGNIFICANT WEATHER AND/OR OBSTRUCTIONS TO VISIBILITY.

MTZ001>007-043-262200-
WEST OF THE DIVIDE

CITY           SKY/WX    TMP DP  RH WIND       PRES   REMARKS
KALISPELL      SUNNY     70  45  40 VRB6      30.24F
MISSOULA       SUNNY     69  47  45 CALM      30.26F
BUTTE          CLOUDY    72  37  28 NW5       30.35F
MULLAN PASS    MOSUNNY   66  44  45 MISG      30.36F
ANACONDA         N/A     75  34  22 NW6       30.30F
DEER LODGE       N/A     72  41  33 NE5       30.34F
EUREKA           N/A     73  45  35 SE6       30.19F
HAMILTON         N/A     72  50  46 NE5       30.26F
LIBBY            N/A     70  45  40 CALM      30.20F
PLAINS           N/A     76  46  34 E1        30.20F
RONAN            N/A     72  48  42 N2        30.27F
$$

MTZ008-052>055-262200-
SOUTHWEST MONTANA

CITY           SKY/WX    TMP DP  RH WIND       PRES   REMARKS
BOZEMAN        CLOUDY    72  42  34 CALM      30.31F
DILLON         CLOUDY    72  37  28 SE3       30.33F
W YELLOWSTONE  CLOUDY    66  37  34 SW7       30.43F
ENNIS          SUNNY     73  36  25 VRB5      30.39F
THREE FORKS      N/A     73  58  59 SE2       30.26F
TWIN BRIDGES     N/A     71  40  32 SE3       30.28F
$$

MTZ009-010-012-014-046-048-049-054-262200-
EAST SLOPES AND CENTRAL MONTANA

CITY           SKY/WX    TMP DP  RH WIND       PRES   REMARKS
CUT BANK       MOSUNNY   77  34  21 SW17      30.17F
GREAT FALLS    CLOUDY    77  41  27 SW15      30.19F
MALMSTROM AFB  CLOUDY    76  40  26 SW17G23   30.19F
HELENA         CLOUDY    75  44  33 NE7       30.26F
AUGUSTA          N/A     78  29  17 W16G25    30.21F
BOWMANS CRNR     N/A     73  39  29 SW21      30.21F
CHOTEAU          N/A     79  30  17 CALM      30.21F
CONRAD           N/A     79  40  24 W1        30.18F
FAIRFIELD        N/A     78  37  23 S14       30.18F
POWER            N/A     77  36  22 W13       30.19F
RAYNESFORD       N/A     76  36  23 W12G23    30.22F
$$

MTZ011-013-016-021-045-047-050-051-262200-
NORTH CENTRAL MONTANA

CITY           SKY/WX    TMP DP  RH WIND       PRES   REMARKS
HAVRE          CLOUDY    73  45  36 SW13      30.14F
LEWISTOWN      SUNNY     72  44  36 NE5       30.23F
N BAR RANCH      N/A     70  43  37 VRB5      30.27F
CHINOOK          N/A     72  45  37 SW6       30.15F
DENTON           N/A     73  45  36 S6        30.17F
GEYSER           N/A     78  29  17 W16G25    30.21F
GRASS RANGE      N/A     72  41  33 W3        30.19F
JUDITH GAP       N/A     73  44  35 S3        30.23F
ROY              N/A     69  46  42 MISG      30.20F
STANFORD         N/A     73  44  35 N3        30.24F
WINIFRED         N/A    N/A N/A N/A MISG        N/A
$$

MTZ017>020-022>027-061-062-262200-
NORTHEAST MONTANA

CITY           SKY/WX    TMP DP  RH WIND       PRES   REMARKS
GLASGOW        SUNNY     70  42  36 SW7G18    30.17F
JORDAN           N/A     73  44  35 W10       30.19F
SIDNEY         SUNNY     70  39  32 W14       30.17F
WOLF POINT     MOSUNNY   72  39  30 W13       30.16F
POPLAR           N/A     70  39  32 SW13      30.16F
SCOBEY           N/A     69  36  29 W10       30.13F
$$

MTZ028>42-056>058-262200-
SOUTHCENTRAL AND SOUTHEAST MONTANA

CITY           SKY/WX    TMP DP  RH WIND       PRES   REMARKS
BAKER          CLOUDY    65  39  38 NW14G23   30.23F
BILLINGS       MOSUNNY   73  44  35 SW12      30.24F
LIVINGSTON     CLOUDY    75  45  34 NW9       30.29F
MILES CITY     SUNNY     71  44  37 W10       30.22F
BIG TIMBER     SUNNY     75  43  31 W24       30.28S
EKALAKA          N/A     66  38  35 W14       30.21F
FORSYTH          N/A     70  46  43 W10       30.22F
HARLOWTON        N/A     75  41  29 W23       30.23F
LAUREL           N/A     73  43  34 S7        30.22F
ROUNDUP          N/A     73  42  32 S10       30.12F
$$

REGIONAL REPORTS...DAKOTAS

CITY           SKY/WX    TMP DP  RH WIND       PRES   REMARKS
WILLISTON      SUNNY     69  37  30 W15G22    30.15F
MINOT          SUNNY     66  34  30 W20G26    30.09F
DICKINSON      SUNNY     65  34  31 NW16G28   30.16F
CROSBY           N/A     66  32  28 NW15G24   30.15F
WATFORD CITY     N/A     66  37  34 W15       30.17S
BISMARCK       SUNNY     68  33  27 N15G26    30.12S
GRAND FORKS    MOSUNNY   64  41  42 NW23G32   29.91S
FARGO          SUNNY     66  33  29 NW30G36   29.93S
BUFFALO SD       N/A     69  40  34 NW21G29   30.14S
RAPID CITY     SUNNY     73  40  30 N23G35    30.21S
$$

REGIONAL REPORTS...WYOMING/IDAHO/WASHINGTON

CITY           SKY/WX    TMP DP  RH WIND       PRES   REMARKS
GILLETTE       SUNNY     67  45  45 NW17      30.29F
SHERIDAN       CLOUDY    72  47  40 N7        30.28F
BUFFALO WY     CLOUDY    69  41  36 E6        30.33F
CODY           SUNNY     68  45  42 SE5       30.34S
YELLOWSTONE LA   N/A     56  41  57 E5        30.52F
IDAHO FALLS    MOSUNNY   69  39  33 CALM      30.37F
SALMON         CLOUDY    68  45  42 CALM      30.30F
BOISE          SUNNY     81  37  20 E10       30.23F
SPOKANE        MOSUNNY   76  45  33 NE7       30.16F
$$

REGIONAL REPORTS...ALBERTA

CITY           SKY/WX    TMP DP  RH WIND       PRES   REMARKS
EDMONTON       SUNNY     75  43  31 SW8       29.92F
CALGARY        MOSUNNY   70  41  35 S7        30.03F
LETHBRIDGE     MOSUNNY   77  37  24 SW21G30   30.08F
MEDICINE HAT   MOSUNNY   77  43  29 S13G20    30.05F
WATERTON GATE    N/A     72  39  30 SW21G32     N/A
CARDSTON         N/A     73  39  29 W12G17      N/A
MILK RIVER       N/A     81  36  19 W16G22      N/A
ONEFOUR          N/A     75  41  29 S10G17      N/A
$$

REGIONAL REPORTS...SASKATCHEWAN

CITY           SKY/WX    TMP DP  RH WIND       PRES   REMARKS
SWIFT CURRENT  SUNNY     68  37  32 W6        30.12F
REGINA         MOSUNNY   66  36  32 NW15      30.12F
SASKATOON      MOSUNNY   66  36  32 W7        30.10F
CYPRESS HILLS    N/A     64  41  42 SW9         N/A
VAL MARIE        N/A     72  39  30 SW7         N/A
ROCKGLEN         N/A     66  37  34 NW8         N/A
ASSINIBOIA       N/A     75  41  29 S13G18      N/A
$$




USA.gov is the U.S. government's official web portal to all federal, state and local government web resources and services.